• In Hungary
  • List of Countries
  • For 7 days
  • Water Temperature
  • Satellite Maps
  • Weather Map
  • News
  • Weather Widgets
  • user-avatar
    Login

    Hourly Weather Wishaw

    Today, 24 January, Wednesday

    Time Temperature Precipitation Wind Pressure Humidity
    00:00 +3°C° 0.1 mm 6 mps 733 mmHg 91%
    01:00 +4°C° 2.1 mm 8 mps 731 mmHg 90%
    02:00 +5°C° 2.1 mm 10 mps 729 mmHg 89%
    03:00 +7°C° 2.1 mm 12 mps 727 mmHg 87%
    04:00 +6°C° 2.2 mm 11 mps 726 mmHg 85%
    05:00 +6°C° 2.2 mm 10 mps 725 mmHg 84%
    06:00 +6°C° 2.2 mm 9 mps 724 mmHg 82%
    07:00 +5°C° 0.3 mm 9 mps 724 mmHg 81%
    08:00 +3°C° 0.3 mm 9 mps 725 mmHg 79%
    09:00 +2°C° 0.3 mm 9 mps 725 mmHg 77%
    10:00 +2°C° 0.1 mm 10 mps 725 mmHg 76%
    11:00 +2°C° 0.1 mm 10 mps 725 mmHg 75%
    12:00 +2°C° 0.1 mm 10 mps 725 mmHg 74%
    13:00 +2°C° 0.2 mm 10 mps 726 mmHg 74%
    14:00 +2°C° 0.2 mm 10 mps 727 mmHg 75%
    15:00 +2°C° 0.2 mm 9 mps 727 mmHg 75%
    16:00 +2°C° 0.2 mm 9 mps 728 mmHg 77%
    17:00 +2°C° 0.2 mm 8 mps 728 mmHg 79%
    18:00 +2°C° 0.2 mm 7 mps 729 mmHg 81%
    19:00 +2°C° 0.1 mm 7 mps 729 mmHg 81%
    20:00 +2°C° 0.1 mm 7 mps 729 mmHg 82%
    21:00 +2°C° 0.1 mm 7 mps 729 mmHg 82%
    22:00 0°C° 0 mm 7 mps 730 mmHg 82%
    23:00 0°C° 0 mm 7 mps 730 mmHg 81%

    Tomorrow, 25 January, Thursday

    Time Temperature Precipitation Wind Pressure Humidity
    00:00 0°C° 0 mm 7 mps 730 mmHg 81%
    01:00 0°C° 0 mm 7 mps 731 mmHg 81%
    02:00 0°C° 0 mm 7 mps 731 mmHg 81%
    03:00 0°C° 0 mm 7 mps 731 mmHg 81%
    04:00 +1°C° 0 mm 6 mps 731 mmHg 81%
    05:00 -1°C° 0 mm 6 mps 731 mmHg 81%
    06:00 -1°C° 0 mm 6 mps 731 mmHg 82%
    07:00 -1°C° 0 mm 6 mps 731 mmHg 82%
    08:00 0°C° 0 mm 5 mps 731 mmHg 83%
    09:00 0°C° 0 mm 5 mps 731 mmHg 84%
    10:00 +1°C° 0 mm 5 mps 731 mmHg 82%
    11:00 +2°C° 0 mm 5 mps 731 mmHg 81%
    12:00 +2°C° 0 mm 5 mps 731 mmHg 79%
    13:00 +3°C° 0.1 mm 4 mps 731 mmHg 81%
    14:00 +3°C° 0.1 mm 3 mps 731 mmHg 84%
    15:00 +4°C° 0.1 mm 2 mps 731 mmHg 86%
    16:00 +4°C° 0 mm 2 mps 732 mmHg 88%
    17:00 +4°C° 0 mm 1 mps 733 mmHg 90%
    18:00 +3°C° 0 mm 1 mps 734 mmHg 92%
    19:00 +2°C° 0 mm 1 mps 735 mmHg 92%
    20:00 +1°C° 0 mm 2 mps 736 mmHg 93%
    21:00 +1°C° 0 mm 2 mps 737 mmHg 93%
    22:00 +1°C° 0 mm 2 mps 738 mmHg 93%
    23:00 +1°C° 0 mm 2 mps 739 mmHg 93%

    Day after tomorrow, 26 January, Friday

    Time Temperature Precipitation Wind Pressure Humidity
    00:00 +1°C° 0 mm 2 mps 740 mmHg 92%
    01:00 0°C° 0 mm 3 mps 741 mmHg 92%
    02:00 0°C° 0 mm 3 mps 742 mmHg 92%
    03:00 0°C° 0 mm 3 mps 743 mmHg 92%
    04:00 0°C° 0 mm 3 mps 744 mmHg 92%
    05:00 0°C° 0 mm 3 mps 745 mmHg 92%
    06:00 0°C° 0 mm 3 mps 746 mmHg 92%
    07:00 0°C° 0 mm 3 mps 747 mmHg 91%
    08:00 +1°C° 0 mm 2 mps 748 mmHg 90%
    09:00 +1°C° 0 mm 2 mps 748 mmHg 90%
    10:00 +1°C° 0 mm 2 mps 749 mmHg 86%
    11:00 +2°C° 0 mm 2 mps 749 mmHg 82%
    12:00 +3°C° 0 mm 2 mps 750 mmHg 78%
    13:00 +3°C° 0 mm 2 mps 750 mmHg 79%
    14:00 +4°C° 0 mm 1 mps 750 mmHg 79%
    15:00 +4°C° 0 mm 1 mps 751 mmHg 79%
    16:00 +3°C° 0 mm 1 mps 751 mmHg 82%
    17:00 +2°C° 0 mm 1 mps 751 mmHg 84%
    18:00 +1°C° 0 mm 1 mps 751 mmHg 86%
    19:00 +1°C° 0 mm 1 mps 751 mmHg 86%
    20:00 -1°C° 0 mm 2 mps 751 mmHg 87%
    21:00 -1°C° 0 mm 2 mps 751 mmHg 87%
    22:00 -1°C° 0 mm 2 mps 751 mmHg 87%
    23:00 -1°C° 0 mm 2 mps 751 mmHg 87%

    27 January, Saturday

    Time Temperature Precipitation Wind Pressure Humidity
    00:00 -1°C° 0 mm 2 mps 751 mmHg 88%
    01:00 0°C° 0 mm 3 mps 751 mmHg 88%
    02:00 0°C° 0 mm 3 mps 750 mmHg 88%
    03:00 +1°C° 0 mm 3 mps 750 mmHg 88%
    04:00 +1°C° 0 mm 3 mps 750 mmHg 90%
    05:00 +1°C° 0 mm 4 mps 750 mmHg 91%
    06:00 +3°C° 0 mm 4 mps 749 mmHg 93%
    07:00 +3°C° 0.4 mm 4 mps 749 mmHg 93%
    08:00 +2°C° 0.4 mm 5 mps 748 mmHg 94%
    09:00 +3°C° 0.4 mm 5 mps 748 mmHg 94%
    10:00 +3°C° 0.7 mm 6 mps 748 mmHg 93%
    11:00 +4°C° 0.7 mm 6 mps 747 mmHg 93%
    12:00 +4°C° 0.7 mm 7 mps 747 mmHg 92%
    13:00 +5°C° 0.3 mm 7 mps 747 mmHg 92%
    14:00 +5°C° 0.3 mm 7 mps 747 mmHg 92%
    15:00 +6°C° 0.3 mm 7 mps 747 mmHg 92%
    16:00 +6°C° 0 mm 7 mps 747 mmHg 91%
    17:00 +5°C° 0 mm 7 mps 748 mmHg 91%
    18:00 +5°C° 0 mm 7 mps 748 mmHg 90%
    19:00 +4°C° 0 mm 6 mps 748 mmHg 90%
    20:00 +4°C° 0 mm 6 mps 749 mmHg 90%
    21:00 +4°C° 0 mm 6 mps 749 mmHg 90%
    22:00 +4°C° 0 mm 6 mps 749 mmHg 90%
    23:00 +4°C° 0 mm 6 mps 750 mmHg 90%

    28 January, Sunday

    Time Temperature Precipitation Wind Pressure Humidity
    00:00 +5°C° 0 mm 5 mps 750 mmHg 91%
    01:00 +5°C° 0.1 mm 6 mps 750 mmHg 91%
    02:00 +7°C° 0.1 mm 6 mps 750 mmHg 92%
    03:00 +8°C° 0.1 mm 7 mps 750 mmHg 93%
    04:00 +8°C° 0.1 mm 7 mps 750 mmHg 92%
    05:00 +9°C° 0.1 mm 7 mps 750 mmHg 91%
    06:00 +9°C° 0.1 mm 8 mps 751 mmHg 90%
    07:00 +9°C° 0.1 mm 8 mps 751 mmHg 90%
    08:00 +9°C° 0.1 mm 8 mps 751 mmHg 90%
    09:00 +9°C° 0.1 mm 8 mps 752 mmHg 90%
    10:00 +8°C° 0.1 mm 9 mps 752 mmHg 89%
    11:00 +8°C° 0.1 mm 9 mps 753 mmHg 89%
    12:00 +10°C° 0.1 mm 9 mps 753 mmHg 88%
    13:00 +8°C° 0.1 mm 9 mps 753 mmHg 88%
    14:00 +8°C° 0.1 mm 9 mps 753 mmHg 88%
    15:00 +8°C° 0.1 mm 9 mps 753 mmHg 88%
    16:00 +9°C° 0.1 mm 8 mps 753 mmHg 89%
    17:00 +9°C° 0.1 mm 8 mps 753 mmHg 89%
    18:00 +9°C° 0.1 mm 8 mps 754 mmHg 90%
    19:00 +9°C° 0 mm 8 mps 754 mmHg 90%
    20:00 +9°C° 0 mm 8 mps 753 mmHg 90%
    21:00 +9°C° 0 mm 8 mps 753 mmHg 90%
    22:00 +9°C° 0 mm 8 mps 753 mmHg 89%
    23:00 +9°C° 0 mm 8 mps 753 mmHg 88%

    29 January, Monday

    Time Temperature Precipitation Wind Pressure Humidity
    00:00 +9°C° 0 mm 8 mps 753 mmHg 87%
    01:00 +8°C° 0 mm 9 mps 753 mmHg 86%
    02:00 +8°C° 0 mm 9 mps 752 mmHg 85%
    03:00 +8°C° 0 mm 10 mps 752 mmHg 84%
    04:00 +8°C° 0 mm 10 mps 752 mmHg 84%
    05:00 +8°C° 0 mm 10 mps 751 mmHg 84%
    06:00 +7°C° 0 mm 10 mps 751 mmHg 84%
    07:00 +7°C° 0.1 mm 10 mps 751 mmHg 85%
    08:00 +7°C° 0.1 mm 9 mps 751 mmHg 85%
    09:00 +7°C° 0.1 mm 9 mps 751 mmHg 86%
    10:00 +8°C° 0.2 mm 9 mps 751 mmHg 86%
    11:00 +8°C° 0.2 mm 9 mps 751 mmHg 86%
    12:00 +8°C° 0.2 mm 9 mps 751 mmHg 86%
    13:00 +9°C° 0.1 mm 8 mps 751 mmHg 87%
    14:00 +9°C° 0.1 mm 7 mps 751 mmHg 87%
    15:00 +9°C° 0.1 mm 7 mps 751 mmHg 87%
    16:00 +8°C° 0.4 mm 6 mps 751 mmHg 88%
    17:00 +8°C° 0.4 mm 5 mps 751 mmHg 89%
    18:00 +8°C° 0.4 mm 5 mps 751 mmHg 90%
    19:00 +7°C° 0.9 mm 4 mps 750 mmHg 91%
    20:00 +7°C° 0.9 mm 4 mps 750 mmHg 92%
    21:00 +7°C° 0.9 mm 4 mps 750 mmHg 93%
    22:00 +7°C° 1.5 mm 4 mps 749 mmHg 93%
    23:00 +6°C° 1.5 mm 4 mps 749 mmHg 93%
    Show more